Location: Conjunto Santa Maria
(19.9513°S, 43.9599°W)
Time: 12:26:25
(UTC+00:00)

Meteor 2-14 Rocket - Pass Details

Date: 21 January 2021
Orbit: 938 x 955 km, 82.5° (Epoch: 03 March)

Event Time Altitude Azimuth Distance (km) Brightness Sun altitude
Rises 22:34:57 0° 186° (S) 3,624 8.0 -12.4°
Reaches altitude 10° 22:37:27 10° 186° (S) 2,672 7.2 -13.0°
Maximum altitude 22:43:34 87° 275° (W) 948 4.5 -14.2°
Drops below altitude 10° 22:49:37 10° 3° (N) 2,641 6.5 -15.5°
Sets 22:52:05 0° 3° (N) 3,579 7.2 -16.0°
